CW3827 Weather Reports


time (UTC)temp
F
wind
direction
speed
knots
gust
knots
rain 1hr
in
rain 24hr
in
rain mn
in
humidity
%
barometer
mb
20260506103006 50 65 3.5 7.0 0.00 0.00 0.00 56 1016.8
20260506101523 50 46 0.0 0.0 0.00 0.00 0.00 56 1016.9
20260506100020 50 67 0.0 0.0 0.00 0.00 0.00 56 1016.7
20260506094520 50 49 0.0 0.0 0.00 0.00 0.00 57 1016.7
20260506093015 50 44 0.0 0.0 0.00 0.00 0.00 57 1016.5
20260506091512 50 44 0.0 0.0 0.00 0.00 0.00 57 1016.4
20260506090027 50 44 0.0 0.0 0.00 0.00 0.00 57 1016.3
20260506084534 50 44 0.0 0.0 0.00 0.00 0.00 58 1016.2
20260506083023 51 75 2.6 5.2 0.00 0.00 0.00 56 1016.2
20260506081521 51 74 3.5 6.1 0.00 0.00 0.00 56 1016.2
20260506073028 53 68 3.5 10.4 0.00 0.00 0.00 50 1015.9
20260506071529 53 72 2.6 12.2 0.00 0.00 0.00 50 1015.9
20260506061525 55 105 5.2 7.0 0.00 0.00 0.00 47 1015.4
20260506044532 54 53 4.3 7.8 0.00 0.00 0.00 47 1015.1
20260506043022 56 60 7.0 11.3 0.00 0.00 0.00 44 1015.0
20260506041517 56 47 7.0 10.4 0.00 0.00 0.00 42 1014.9
20260506040011 57 82 8.7 17.4 0.00 0.00 0.00 40 1014.7
20260506034505 58 70 7.8 15.6 0.00 0.00 0.00 38 1014.5
20260506033005 59 84 11.3 17.4 0.00 0.00 0.00 36 1014.3
20260506031504 60 316 13.0 23.5 0.00 0.00 0.00 34 1014.1
20260506030017 61 294 14.8 24.3 0.00 0.00 0.00 34 1014.0
20260506024518 61 96 12.2 20.9 0.00 0.00 0.00 33 1013.9
20260506023016 61 86 14.8 19.1 0.00 0.00 0.00 34 1013.7
20260506021509 61 61 15.6 24.3 0.00 0.00 0.00 35 1013.6
20260506020004 62 134 14.8 23.5 0.00 0.00 0.00 34 1013.3
20260506014504 62 70 13.9 26.1 0.00 0.00 0.00 35 1013.3
20260506013020 62 55 13.9 25.2 0.00 0.00 0.00 36 1013.2
20260506011535 62 59 20.0 28.7 0.00 0.00 0.00 35 1013.0
20260506010015 62 65 21.7 26.9 0.00 0.00 0.00 35 1012.9
20260506004520 64 105 18.2 32.2 0.00 0.00 0.00 34 1012.7
20260506003008 64 102 16.5 29.5 0.00 0.00 0.00 33 1012.7
20260506001507 65 89 20.0 30.4 0.00 0.00 0.00 31 1012.7
20260506000025 65 81 20.9 29.5 0.00 0.00 0.00 31 1012.7
20260505234517 66 50 21.7 33.9 0.00 0.00 0.00 32 1012.3
20260505233026 66 180 22.6 37.4 0.00 0.00 0.00 32 1012.2
20260505231518 66 77 20.9 34.8 0.00 0.00 0.00 30 1012.3
20260505230009 66 131 26.9 34.8 0.00 0.00 0.00 33 1012.2
20260505224508 66 82 21.7 37.4 0.00 0.00 0.00 34 1012.6
20260505223025 65 106 22.6 35.6 0.00 0.00 0.00 36 1012.7
20260505221522 64 72 19.1 32.2 0.00 0.00 0.00 39 1013.1
20260505220041 64 360 18.2 32.2 0.00 0.00 0.00 41 1013.2
20260505214525 65 57 22.6 33.0 0.00 0.00 0.00 38 1013.3
20260505213019 66 54 22.6 32.2 0.00 0.00 0.00 39 1013.5
20260505211537 64 173 19.1 37.4 0.00 0.00 0.00 43 1013.5
20260505210024 65 90 26.9 37.4 0.00 0.00 0.00 42 1013.5
20260505204525 66 71 22.6 34.8 0.00 0.00 0.00 40 1013.7
20260505203024 65 143 20.9 31.3 0.00 0.00 0.00 42 1014.0
20260505201520 65 55 26.1 35.6 0.00 0.00 0.00 42 1013.8
20260505200015 64 77 25.2 34.8 0.00 0.00 0.00 42 1014.1
20260505194528 64 58 21.7 41.7 0.00 0.00 0.00 42 1014.3
20260505193034 64 86 26.1 33.9 0.00 0.00 0.00 43 1014.3
20260505191526 65 11 21.7 33.0 0.00 0.00 0.00 42 1014.1
20260505190005 64 146 20.0 32.2 0.00 0.00 0.00 41 1014.3
20260505184504 64 93 20.9 26.9 0.00 0.00 0.00 42 1014.9
20260505183029 63 61 20.0 31.3 0.00 0.00 0.00 41 1015.0
20260505181518 64 135 19.1 25.2 0.00 0.00 0.00 40 1015.0
20260505180016 65 74 20.0 27.8 0.00 0.00 0.00 36 1015.2
20260505174510 62 32 19.1 26.1 0.00 0.00 0.00 41 1015.4
20260505173008 62 46 13.0 21.7 0.00 0.00 0.00 40 1015.4
20260505171524 60 63 14.8 20.9 0.00 0.00 0.00 41 1015.4
20260505170026 60 101 13.9 23.5 0.00 0.00 0.00 41 1015.3
20260505164519 61 55 15.6 20.0 0.00 0.00 0.00 40 1015.1
20260505163016 61 97 16.5 26.9 0.00 0.00 0.00 40 1015.2
20260505161514 62 1 17.4 22.6 0.00 0.00 0.00 39 1015.1
20260505153025 58 65 13.9 20.0 0.00 0.00 0.00 49 1015.2
20260505151521 57 119 13.9 21.7 0.00 0.00 0.00 52 1015.3
20260505124536 56 83 12.2 16.5 0.00 0.00 0.00 49 1015.0
20260505123011 56 23 13.9 19.1 0.00 0.00 0.00 50 1014.6
20260505121505 56 47 13.0 18.2 0.00 0.00 0.00 49 1014.3
20260505120003 56 73 14.8 20.9 0.00 0.00 0.00 50 1014.1
20260505114514 56 70 15.6 20.9 0.00 0.00 0.00 50 1014.2
20260505113015 57 26 13.0 20.0 0.00 0.00 0.00 49 1014.3
20260505111517 56 46 15.6 20.0 0.00 0.00 0.00 49 1014.5